CAPE
0 0 0 0 0 0 0 0 0 38 56 62 35 40 59 80 91 82 77 79 82 87 77 67 62 75 69
0 0 0 0 0 0 0 7 6 34 47 30 34 50 86 71 57 65 71 99 90 95 70 61 65 57 44
1 0 0 0 0 0 9 9 0 8 20 22 41 36 27 48 74 94 91 79 84 74 81 76 61 58 52
6 1 0 0 31 9 0 0 0 2 3 8 31 25 48 62 52 57 32 19 51 73 76 75 74 50 54
27 3 6 0 5 2 4 0 0 0 0 0 5 4 1 11 4 7 12 29 57 77 78 62 92 57 45
39 2 0 0 6 0 0 3 10 4 6 0 6 0 0 0 25 32 58 54 135 106 71 45 45 50 31
3 3 8 2 0 2 7 24 24 9 6 4 3 2 2 15 26 41 37 36 69 54 81 75 60 43 41
3 8 13 8 15 15 6 5 5 2 10 10 6 18 0 0 27 36 28 22 38 47 51 36 36 47 51
51 61 37 35 29 6 1 9 5 8 0 3 1 2 1 0 0 4 24 103 35 35 32 33 18 55 36
0 0 0 1 27 10 7 7 5 2 0 1 0 1 1 0 0 0 0 3 14 6 11 28 49 13 38
0 0 1 2 3 2 4 3 0 0 0 1 0 0 0 0 0 0 1 0 0 0 0 11 11 4 2
3 3 2 0 0 0 1 0 0 1 0 0 0 0 0 0 0 0 0 0 0 0 2 12 15 5 18
9 3 1 0 0 0 0 0 0 0 1 0 1 1 0 0 0 0 0 0 0 0 0 0 0 1 0
3 1 0 0 0 0 0 1 0 1 0 0 0 0 0 0 0 0 0 0 0 0 0 0 0 0 0
1 0 0 0 0 0 0 0 0 0 0 0 0 0 0 0 0 0 0 0 0 0 0 0 0 0 0
0 0 0 0 0 0 0 0 0 0 0 0 0 0 0 0 5 0 0 0 0 0 0 0 0 1 1
0 0 0 0 0 0 0 0 0 0 0 0 0 0 0 0 0 13 0 0 0 0 0 0 0 0 1
CIN
-0 -0 -0 -0 -0 -0 -0 -0 -1 -0 -0 -0 -0 -0 -0 -0 -0 -0 -0 -0 -0 -0 -0 -0 -0 -0 -0
-0 -0 -0 -0 -0 -0 -0 -0 -1 -0 -0 -0 -0 -0 -0 -0 -0 -0 -0 -0 -0 -0 -0 -0 -0 -0 -0
-3 -0 -0 -0 -0 -0 -1 -1 -0 -0 -0 -0 -0 -0 -0 -0 -0 -0 -0 -0 -0 -0 -0 -0 -0 -0 -0
-4 -2 -0 -2 -0 -0 -0 -0 -0 -0 -0 -0 -0 -0 -0 -0 -0 -0 -0 -2 -0 -0 -0 -0 -0 -0 -0
-0 -8 -10 -1 -2 -2 -3 -1 -0 -2 -2 -0 -1 -1 -2 -0 -0 -0 -0 -0 -0 -0 -0 -0 -0 -0 -0
-0 -1 -0 -0 -2 -0 -2 -1 -0 -3 -2 -1 -2 -1 -0 -2 -0 -0 -0 -0 -0 -0 -0 -0 -0 -0 -0
-3 -2 -1 -3 -0 -4 -3 -0 -0 -2 -2 -0 -2 -2 -2 -0 -0 -0 -0 -0 -0 -0 -0 -0 -0 -0 -0
-3 -2 -1 -1 -0 -0 -1 -1 -2 -2 -2 -0 -3 -1 -0 -0 -0 -0 -0 -0 -0 -0 -0 -0 -0 -0 -0
-0 -0 -0 -0 -0 -1 -3 -0 -1 -1 -1 -2 -2 -1 -4 -0 -0 -0 -0 -0 -3 -0 -0 -0 -0 -0 -1
-0 -0 -0 -1 -0 -0 -0 -0 -1 -1 -0 -2 -0 -1 -2 -0 -0 -0 -0 -3 -0 -0 -0 -6 -0 -0 -1
-0 -1 -1 -1 -1 -1 -0 -0 -0 -0 -0 -1 -0 -0 -0 -0 -0 -5 -1 -0 -0 -0 -0 -0 -0 -0 -12
-1 -2 -1 -2 -1 -0 -0 -0 -0 -0 -0 -0 -0 -0 -0 -0 -0 -0 -0 -0 -0 -0 -0 -0 -0 -0 -6
-0 -1 -1 -1 -0 -0 -0 -0 -0 -0 -10 -0 -0 -0 -0 -0 -0 -0 -0 -0 -0 -0 -0 -0 -0 -0 -2
-0 -1 -0 -0 -0 -0 -0 -2 -0 -1 -0 -0 -0 -0 -0 -0 -0 -0 -0 -0 -0 -0 -0 -0 -0 -0 -0
-0 -1 -1 -1 -0 -0 -0 -0 -0 -0 -0 -0 -0 -0 -0 -0 -0 -0 -0 -0 -0 -0 -0 -0 -0 -0 -0
-0 -0 -0 -0 -0 -0 -0 -0 -0 -0 -0 -0 -0 -0 -0 -0 -0 -0 -0 -0 -0 -0 -0 -0 -0 -0 -0
-0 -0 -0 -0 -0 -0 -0 -0 -0 -0 -0 -0 -0 -0 -0 -0 -0 -0 -0 -0 -0 -0 -0 -0 -0 -0 -0
Wind_Speed
15 16 19 19 17 14 14 14 14 29 32 32 36 39 36 35 34 35 36 35 34 33 35 33 32 31 32
17 15 18 18 19 19 14 12 14 21 30 36 35 35 34 33 36 37 36 35 33 32 30 32 34 32 31
16 14 15 15 18 17 13 12 13 23 29 32 33 33 35 34 34 34 33 32 32 31 32 31 32 31 31
14 13 15 15 12 13 15 12 14 12 20 26 29 31 32 33 32 32 33 34 33 32 31 29 29 29 28
14 16 11 15 15 14 15 16 15 12 14 13 11 12 15 23 27 31 31 30 30 29 30 28 28 25 29
13 16 18 16 13 14 15 16 19 8 12 15 11 15 13 12 24 32 29 31 28 28 28 28 28 27 28
20 18 20 17 18 20 18 15 15 12 15 18 11 14 12 12 27 30 31 34 29 28 28 26 26 27 29
17 18 18 19 19 17 19 19 15 12 12 19 10 12 13 12 27 30 32 31 31 29 27 29 27 26 28
29 32 32 33 29 16 13 14 15 13 11 14 13 14 12 13 14 29 27 19 23 22 25 23 25 27 22
14 19 21 19 28 16 13 14 15 15 13 12 13 12 11 10 9 8 10 17 22 26 25 23 23 11 10
14 13 13 13 12 12 13 12 14 15 17 13 10 11 9 10 7 8 7 10 9 13 23 25 24 20 6
13 12 13 12 13 14 17 15 13 16 17 15 9 10 8 8 9 5 8 9 10 10 10 16 24 24 23
12 13 12 13 14 14 15 16 15 13 8 6 7 9 5 7 9 9 9 4 8 8 6 7 9 7 9
12 12 11 10 12 11 11 10 11 9 9 6 7 6 5 7 9 10 7 4 6 4 4 4 8 5 5
12 12 12 11 12 11 9 10 10 10 9 8 9 7 7 8 7 7 5 3 5 5 5 11 10 8 7
11 11 12 12 12 12 9 9 10 10 8 8 9 6 2 3 8 7 5 4 6 7 7 13 12 11 11
11 12 12 11 16 10 10 9 10 7 7 6 7 6 7 6 5 20 5 5 7 10 9 10 11 10 12
Wind_Direction
299 302 306 302 297 288 283 281 282 288 293 295 300 290 287 285 286 289 284 281 281 280 278 279 278 277 274
298 300 295 298 294 293 289 283 287 286 296 293 295 298 295 300 295 290 289 285 284 280 279 275 274 270 269
291 292 293 294 295 292 299 292 285 293 295 293 294 299 289 287 285 285 283 284 285 281 280 270 269 270 269
283 293 295 303 298 300 298 296 294 292 289 288 288 289 293 293 296 294 293 288 283 281 276 266 263 270 266
296 294 299 305 304 299 295 297 291 291 287 282 286 287 281 285 284 282 282 279 279 276 276 273 273 277 270
300 304 302 300 301 294 294 294 295 278 292 289 285 283 280 275 277 283 282 292 285 279 274 275 265 266 265
298 297 297 296 296 293 288 287 292 304 295 286 284 280 280 274 288 286 293 289 281 286 281 269 263 264 262
294 297 292 296 295 300 299 296 287 288 284 283 293 282 287 282 287 285 285 282 281 282 281 267 263 261 256
301 301 309 308 306 303 297 298 295 296 285 281 289 284 285 283 276 276 287 291 295 291 283 275 259 266 248
313 308 305 299 303 300 298 293 292 292 285 283 283 287 285 267 269 280 278 287 288 287 278 273 269 260 225
307 304 304 304 302 298 291 285 286 284 284 289 285 281 269 289 266 277 264 278 276 276 278 267 258 251 201
306 307 310 308 305 301 298 292 284 282 287 288 279 282 288 299 294 278 279 275 269 263 261 253 247 239 225
312 309 307 303 301 302 302 301 292 278 272 290 321 326 285 282 285 291 298 282 283 270 270 255 194 193 208
306 305 305 307 308 308 306 316 316 313 305 276 297 285 290 274 288 284 283 281 315 316 312 53 67 81 111
311 310 310 311 309 308 305 311 312 312 320 325 327 292 258 273 314 328 324 328 351 343 22 65 48 52 78
310 309 310 312 310 315 316 318 315 315 326 339 338 338 323 302 326 342 346 6 15 22 47 73 66 54 65
309 312 310 310 319 317 322 322 319 325 337 345 346 3 9 9 328 16 9 11 54 52 53 64 78 66 74